|
Cosmos 2058 - Orbit
|
Bishop's University Astronomical Observatory;
22:40:36
| Home | Info | Passes |
|
View from above orbital plane
|
View from above satellite
|
Ground track
|
The orbit data is extracted from the following two-line orbital elements,
1 20465U 90010A 13140.77391885 .00002195 00000-0 20683-3 0 7867
2 20465 082.4945 235.1201 0015778 252.2279 107.7220 14.93301968262825
| Epoch (UTC): | 20 May 2013 18:34:26 |
| Eccentricity: | 0.0015778 |
| inclination: | 82.4945° |
| perigee height: | 576 km |
| apogee height: | 598 km |
| right ascension of ascending node: | 235.1201° |
| argument of perigee: | 252.2279° |
| revolutions per day: | 14.93301968 |
| mean anomaly at epoch: | 107.7220° |
| orbit number at epoch: | 26282 |
The dashed part of the orbit path shows where the satellite is in the earth's shadow,
|
|